Wind_Speed
5 2 4 4 3 2 3 5 5 5 4 2 2 6 10 10 9 10 10 11 14 15 15 16 16 15 15 16 15 14 12 9 10 16 17 19 23 25 27 29 31 32 32 33 33 34 35 36 37 37 38 38 38 39 39 39 39 39 39 39 40 40 40 40 40 40 40 39 39 39 38 38 37 37 36 35 34 34 33 33 32 32 31 30 29
10 2 2 3 3 4 4 4 5 5 5 3 3 4 8 10 9 9 9 9 11 14 14 15 16 16 16 15 15 14 14 13 13 14 17 20 23 24 27 30 32 33 34 34 35 35 36 37 37 38 38 39 39 39 39 39 39 39 39 39 40 40 40 40 39 39 39 39 39 38 38 37 37 36 36 35 34 34 33 33 33 32 32 31 30
16 7 1 4 4 6 5 5 6 6 6 5 3 3 5 8 7 8 8 8 10 14 13 13 15 16 16 15 15 15 15 15 16 15 15 19 23 24 26 29 31 32 33 35 36 36 37 37 38 38 39 39 39 39 39 40 40 40 39 39 39 39 39 39 39 39 39 38 38 38 37 37 36 36 35 35 35 34 34 33 33 32 32 31 30
20 13 3 4 6 7 6 6 7 7 7 5 2 2 3 4 5 6 7 8 10 12 11 11 14 15 16 15 14 14 15 15 17 17 16 19 23 24 25 27 29 31 32 33 35 36 36 37 37 38 38 39 39 39 39 39 39 40 39 39 39 39 39 39 39 39 38 38 38 37 37 36 36 35 35 35 34 34 33 33 32 31 30 30 29
21 18 10 3 7 8 7 7 7 7 7 5 2 2 2 2 3 4 6 7 7 8 10 10 12 14 15 15 14 14 15 15 16 18 18 20 22 25 25 26 27 30 31 32 33 34 35 36 36 37 38 38 39 39 39 39 39 39 39 39 39 39 38 38 38 38 38 37 37 37 36 36 35 35 34 34 33 32 32 31 31 30 30 29 29
20 20 15 6 7 9 9 8 8 8 8 6 3 3 3 2 1 2 4 4 4 5 8 9 11 14 15 14 14 14 15 15 16 18 19 21 22 25 26 27 28 29 31 32 32 33 34 35 36 36 37 37 38 38 39 39 39 39 39 39 39 39 38 38 38 37 37 37 36 36 36 35 35 34 33 33 32 32 31 31 31 30 30 29 28
19 19 18 11 5 10 11 10 9 9 9 8 5 4 4 3 4 0 3 2 2 3 5 8 10 12 13 14 13 15 16 16 16 18 20 22 23 25 27 28 29 30 31 32 32 33 34 34 35 36 36 37 38 38 39 39 39 39 39 39 39 39 38 38 38 38 37 37 36 36 35 35 34 34 33 33 32 32 31 31 30 29 28 27 26
19 18 18 15 8 9 13 12 11 10 10 9 7 6 5 5 6 3 2 1 1 2 3 6 8 10 12 12 13 14 16 16 17 19 21 23 24 25 27 28 29 30 31 32 33 34 35 35 36 36 37 37 38 38 39 39 39 39 39 39 39 38 38 38 37 37 36 36 36 35 34 34 33 33 32 32 31 30 29 28 27 26 25 24 23
18 18 18 17 12 7 12 14 12 11 10 10 8 7 6 6 8 5 2 2 0 1 2 4 6 8 10 11 12 13 15 16 17 19 21 23 24 24 26 27 28 29 30 31 32 33 35 35 36 36 37 37 37 38 38 38 38 38 38 37 37 36 36 35 35 34 34 34 33 33 33 32 31 31 30 30 29 28 26 25 24 23 22 21 20
17 17 18 18 15 8 9 15 15 13 12 11 10 8 7 8 8 6 4 3 1 1 1 4 5 7 9 10 11 12 14 15 16 19 21 21 22 23 24 26 27 29 30 31 31 32 33 34 34 35 35 35 35 36 36 36 36 36 35 35 34 33 33 32 32 31 31 31 30 30 29 29 28 28 27 26 25 24 23 23 22 20 19 18 18
16 16 17 17 16 11 6 13 17 15 14 13 11 9 9 9 8 7 6 5 3 1 1 3 5 6 8 9 10 11 12 13 14 17 19 20 20 21 22 24 25 27 29 30 31 32 32 33 33 33 33 33 33 33 33 33 33 32 31 31 30 30 29 29 28 27 27 27 26 26 25 25 24 24 23 23 22 21 20 20 19 18 17 16 15
15 16 16 16 16 13 6 10 17 17 16 15 14 12 10 9 8 7 7 7 5 2 0 3 4 5 7 8 9 9 10 10 12 15 17 18 18 19 20 21 23 25 27 29 30 31 32 32 32 32 32 31 31 31 30 30 29 29 28 28 27 27 26 26 25 24 24 23 23 22 22 21 21 21 20 20 19 18 18 17 17 16 16 14 13
16 16 15 15 15 13 8 5 14 18 17 17 16 13 11 10 9 8 9 8 6 4 1 3 4 6 7 7 7 8 8 9 11 13 15 16 16 17 17 18 20 22 25 27 28 29 29 29 29 29 29 28 28 27 27 27 27 27 27 26 26 26 25 25 24 23 22 22 21 21 20 19 19 18 18 17 16 16 15 15 14 14 13 12 11
18 16 16 15 14 12 8 4 11 17 18 18 17 15 12 11 10 10 10 9 7 5 2 2 4 7 8 7 7 7 8 9 10 11 14 15 14 14 14 15 17 20 22 24 25 26 27 27 27 27 26 26 26 25 25 25 25 25 24 24 23 23 23 22 22 21 21 20 19 19 18 17 17 16 15 15 14 14 13 12 11 11 10 10 10
18 17 17 15 14 12 8 3 8 15 17 19 18 16 14 12 11 10 10 9 7 5 3 2 4 8 10 9 8 8 8 9 10 10 13 14 13 12 12 13 14 17 19 21 23 24 24 25 25 25 25 24 24 24 23 23 23 22 22 21 21 20 20 19 19 19 18 17 17 16 15 15 14 14 13 13 12 11 10 10 9 8 8 8 8
17 18 18 16 14 12 8 2 6 13 16 18 19 17 15 13 12 11 9 9 7 6 4 4 6 9 11 10 10 10 9 9 10 10 12 14 14 12 11 11 12 14 16 18 20 21 22 22 22 22 22 22 22 21 21 20 20 19 19 18 18 17 17 17 16 15 15 14 14 14 13 13 13 12 12 11 10 9 9 8 8 7 7 7 7
14 16 17 17 15 14 9 3 5 13 16 18 20 19 16 15 13 11 10 9 8 7 6 5 7 11 11 11 11 11 10 9 10 11 11 13 15 13 11 10 11 13 14 16 18 19 19 20 20 20 20 20 20 19 18 18 17 16 16 16 15 15 14 14 13 13 12 12 12 12 12 11 11 10 9 9 8 8 8 7 7 7 7 7 7
13 13 15 16 15 15 12 6 4 12 17 19 20 20 19 16 14 12 11 11 10 9 8 6 8 12 13 13 12 11 10 9 10 11 11 13 15 15 13 10 10 11 13 14 16 17 17 18 18 18 18 18 17 17 16 15 15 14 14 13 13 12 12 11 11 11 10 10 10 10 10 9 9 8 8 8 8 8 8 8 8 8 8 8 9
12 12 13 14 14 15 14 9 4 10 17 20 22 22 20 18 16 14 13 12 12 11 10 7 9 13 15 14 13 11 10 10 11 11 12 13 14 15 14 11 10 10 12 14 14 15 15 15 16 16 16 16 15 15 14 14 13 13 12 11 11 11 11 10 10 9 9 9 8 8 8 8 8 8 8 9 9 8 9 9 9 9 10 10 11
14 12 12 12 12 13 14 12 6 9 16 21 23 24 22 20 17 15 14 13 13 13 11 9 9 13 16 16 14 11 10 11 11 11 12 13 13 14 15 13 11 10 12 13 13 13 13 13 14 14 14 14 13 13 12 12 11 11 10 10 10 10 10 9 9 8 8 8 8 8 8 8 8 8 8 8 8 8 8 9 10 10 10 11 12
19 16 15 12 11 11 12 13 9 7 15 21 23 24 24 21 19 17 15 15 14 14 13 11 10 13 16 16 16 14 11 11 12 12 12 13 13 13 14 14 13 12 12 13 13 13 12 12 12 12 12 12 12 11 10 10 9 9 9 8 8 8 8 7 7 7 7 7 7 7 7 7 7 7 7 7 7 7 8 8 9 9 10 11 12
23 21 17 14 12 11 11 12 11 8 13 20 23 24 24 23 21 19 17 16 15 14 14 14 12 12 15 16 16 15 13 12 12 13 13 13 13 13 13 13 14 13 14 14 13 12 11 11 11 11 10 10 10 10 9 9 8 8 8 7 7 6 6 6 5 6 6 6 6 6 5 5 5 5 5 6 6 7 8 8 8 9 11 12 13
25 23 18 15 13 12 11 11 11 9 12 19 23 23 24 24 22 20 18 16 15 15 15 15 14 13 14 15 15 15 14 13 13 13 14 14 14 13 13 13 14 14 14 14 14 13 11 10 10 10 9 9 8 8 8 7 7 6 6 6 6 5 5 5 5 5 5 5 5 5 4 3 4 4 5 6 7 8 9 9 9 11 12 14 15
26 25 19 16 15 13 12 12 11 10 11 17 23 23 23 24 23 22 19 17 16 15 15 16 17 15 15 16 16 15 15 14 14 14 15 16 15 14 13 13 14 14 14 15 14 13 12 11 10 9 8 7 7 6 6 6 5 5 5 5 5 5 5 5 5 5 5 5 5 4 3 2 3 4 6 8 10 10 10 10 9 10 12 14 16
26 26 20 16 16 14 13 13 11 10 10 14 21 23 23 23 23 22 21 19 18 17 16 16 18 18 16 17 17 18 17 16 16 16 16 16 16 14 14 14 14 14 15 15 15 14 13 13 11 10 8 6 5 4 4 3 3 3 3 4 4 4 5 5 5 5 5 5 4 3 2 3 5 6 8 10 12 12 11 9 9 10 12 14 15
26 27 21 18 18 15 14 13 11 10 10 11 18 23 23 23 24 23 22 21 19 18 17 17 19 20 19 18 19 19 20 19 18 18 18 18 17 15 15 15 14 15 15 15 15 15 14 14 13 11 9 6 4 3 1 0 1 2 2 2 4 5 5 5 5 5 6 6 5 4 5 6 7 8 9 11 12 11 9 8 8 10 13 15 15
25 27 24 21 20 17 15 15 13 11 9 10 15 21 24 24 24 24 24 23 21 20 19 17 18 21 22 21 21 21 21 21 20 19 20 20 19 18 17 16 15 15 16 15 15 15 15 15 13 12 10 8 5 3 1 2 3 3 3 2 3 4 5 5 6 7 7 7 7 7 7 8 9 9 10 11 11 9 7 7 8 11 15 17 16
25 27 27 26 24 19 17 16 15 13 11 10 12 18 24 25 25 25 25 24 23 21 20 18 18 21 23 22 22 22 22 23 22 21 20 20 20 20 20 19 17 16 17 17 16 16 15 15 14 13 11 9 7 4 3 3 4 4 4 4 4 4 5 6 8 9 10 10 10 10 10 10 10 9 10 10 9 7 7 9 12 14 17 20 18
27 27 29 30 27 23 20 18 17 17 14 12 11 15 21 26 27 27 26 26 24 22 21 19 18 20 23 23 23 23 23 24 24 23 22 21 21 21 22 22 20 18 18 18 17 17 16 16 15 13 12 9 7 6 5 4 4 4 5 5 4 5 6 7 9 10 11 11 10 10 10 10 9 8 9 9 8 9 10 12 15 17 18 19 19
29 29 31 32 28 25 24 21 19 19 18 15 12 12 17 23 27 28 28 28 26 24 22 21 19 19 22 24 23 23 23 23 24 24 24 24 22 21 22 23 21 20 19 19 18 18 18 17 16 14 12 10 8 8 7 6 6 5 5 5 5 6 7 8 10 11 11 10 9 8 9 9 8 7 9 9 9 10 11 14 16 16 17 19 21
32 31 31 31 29 28 27 24 22 22 21 19 15 12 13 17 24 28 30 30 28 26 24 22 21 20 21 24 24 23 23 23 23 23 24 25 24 22 22 23 22 21 20 20 19 18 18 18 17 16 13 12 11 10 8 7 6 6 5 6 6 7 8 9 9 9 9 8 7 7 8 9 8 7 9 10 9 10 11 14 15 15 17 20 23
35 34 31 29 29 30 31 28 25 24 23 22 19 15 13 14 19 25 29 31 30 28 25 23 22 21 22 24 24 24 24 23 22 22 23 25 25 23 22 23 24 23 21 20 19 18 18 19 18 17 15 14 13 12 10 9 8 7 7 7 8 8 9 9 9 9 8 7 6 7 8 8 6 6 9 11 10 10 12 14 15 15 18 21 24
37 36 34 30 29 31 33 32 30 27 25 24 21 18 16 15 16 21 26 30 30 28 26 25 24 23 23 24 25 24 24 23 22 21 22 24 25 25 23 24 25 25 23 22 19 18 18 19 18 17 16 15 14 13 12 11 10 9 9 9 9 9 9 9 9 9 9 8 7 7 7 6 5 8 11 12 11 12 13 15 16 18 20 22 25
37 37 37 34 33 34 35 35 34 31 28 25 23 20 18 17 17 19 22 26 29 28 27 25 25 24 25 26 26 25 24 23 22 22 22 23 25 25 24 25 26 26 25 24 21 19 18 18 18 18 17 16 15 15 13 12 12 11 11 10 10 10 10 10 10 10 10 10 10 9 9 9 9 12 13 13 13 15 16 16 18 20 22 24 26
41 40 39 37 36 38 38 37 37 36 31 26 24 23 20 19 18 18 19 23 26 27 26 25 25 25 26 27 27 26 24 23 22 23 23 24 24 25 25 26 27 27 27 26 24 22 20 19 19 19 18 16 15 15 14 13 13 12 12 11 10 11 11 11 11 12 12 12 12 12 12 13 13 14 14 14 15 17 18 18 21 23 24 26 27
47 45 42 40 40 41 43 43 42 41 35 28 25 25 23 21 19 18 17 19 23 25 25 25 25 25 26 27 27 26 25 23 23 24 24 25 26 26 26 27 28 28 28 28 27 25 23 21 20 20 18 16 15 15 14 14 13 12 12 12 11 11 12 12 13 13 13 13 13 14 15 15 15 15 15 15 17 19 18 20 24 26 26 27 28
50 49 46 46 45 44 46 46 42 41 38 31 26 26 26 23 20 19 18 17 19 23 24 24 25 25 26 27 27 26 25 25 25 25 25 27 28 27 27 28 29 28 28 27 26 26 24 23 22 20 18 17 16 15 15 14 14 13 13 13 12 13 14 14 14 15 14 14 14 15 16 17 16 16 16 17 20 22 21 23 26 27 28 29 29
53 53 52 51 51 49 49 46 42 39 39 35 30 27 27 24 21 20 20 18 18 21 23 24 25 26 26 27 27 26 26 26 26 26 26 27 28 28 28 29 29 28 26 25 24 24 23 23 22 20 18 17 17 16 16 15 14 14 14 14 14 15 16 15 15 16 16 16 16 16 16 16 16 16 17 18 21 24 24 25 27 28 29 30 30
54 56 56 55 55 53 51 48 43 39 39 39 34 30 28 26 23 21 20 20 19 21 23 24 25 26 26 27 27 27 26 26 27 26 26 27 28 28 28 29 28 27 25 24 23 23 23 22 22 20 19 18 17 16 16 16 15 15 16 16 16 17 18 17 16 17 18 18 17 17 17 17 17 16 17 19 21 23 24 26 28 30 30 30 30
54 56 59 59 58 56 53 50 45 41 39 40 39 34 30 28 25 22 21 21 21 22 23 25 26 26 26 26 26 26 26 26 26 26 27 27 28 28 28 28 28 26 25 24 23 23 22 22 22 21 21 20 19 18 17 16 16 16 17 17 18 19 20 18 17 17 18 18 18 18 19 20 19 18 19 21 22 23 25 27 29 30 31 30 31
55 55 59 62 60 57 56 53 48 44 42 41 41 38 34 31 28 25 23 23 23 23 24 25 26 26 26 25 25 25 26 27 27 26 26 27 27 27 27 28 27 26 25 25 24 23 23 23 23 22 22 21 19 18 18 17 16 17 18 18 18 20 20 18 17 18 19 19 19 20 21 22 21 20 22 23 23 25 26 28 29 31 31 31 31
59 55 57 61 63 60 57 55 51 47 45 43 41 39 37 33 30 28 26 26 26 25 26 27 27 27 26 25 25 25 27 28 28 27 26 26 26 26 26 27 27 26 25 25 25 25 24 24 23 22 21 19 18 18 17 17 17 18 19 20 19 19 20 20 20 21 21 21 21 22 23 24 24 23 23 24 25 26 28 29 30 32 33 33 32
60 58 56 58 62 62 59 57 54 50 47 45 42 40 39 36 33 31 29 28 28 27 28 28 28 28 27 26 26 27 28 30 30 28 26 25 25 25 26 26 26 26 26 26 25 25 25 24 23 21 19 17 18 19 19 19 20 21 21 21 20 20 21 21 22 23 24 24 24 25 25 26 25 24 25 26 27 28 29 30 32 34 34 34 34
59 60 58 56 59 63 62 59 57 53 50 47 44 41 41 39 37 34 31 30 30 29 29 29 29 28 28 28 27 28 30 31 31 29 28 27 27 26 26 27 27 27 26 26 26 26 26 25 24 22 20 19 20 21 21 21 22 23 24 23 23 22 23 23 23 24 25 26 27 27 27 26 25 25 27 28 28 28 30 31 33 35 35 35 36
58 60 60 57 58 63 65 62 59 56 52 49 46 43 43 42 40 37 34 32 32 32 30 29 29 29 29 29 28 29 30 31 31 30 30 29 28 28 28 28 28 28 27 28 28 28 27 27 26 24 22 21 21 21 23 24 25 26 27 26 25 24 24 24 24 24 25 27 27 26 25 25 26 27 28 29 29 29 30 31 34 35 35 36 38
60 60 61 60 58 61 66 65 61 57 54 51 49 47 45 44 43 40 38 36 35 34 33 30 29 29 30 31 30 30 31 32 32 31 30 30 29 29 29 29 29 28 28 29 29 29 28 28 26 24 23 23 24 25 27 28 28 29 29 28 26 26 25 25 25 25 27 28 26 24 23 25 26 27 29 30 31 31 32 33 34 36 37 39 41
64 60 60 61 60 60 65 67 63 58 55 53 51 49 48 47 45 43 41 40 38 37 36 34 31 29 30 32 32 31 32 33 33 33 32 30 29 28 28 30 30 29 28 29 29 28 28 27 25 24 25 27 29 29 29 29 30 30 31 30 30 30 30 29 28 27 29 30 28 26 25 27 30 31 31 32 33 34 34 35 37 39 41 42 43
68 64 61 61 61 61 64 68 66 61 56 54 51 50 50 49 47 45 44 43 41 40 39 38 35 31 30 31 33 33 33 34 34 35 34 33 32 30 30 31 31 30 29 30 29 28 28 28 27 27 28 31 31 30 29 29 29 30 30 31 31 33 34 33 31 30 31 32 32 31 32 35 39 38 36 36 36 37 38 39 40 42 44 45 45
72 68 64 61 62 62 62 66 68 64 59 55 52 50 51 52 50 47 46 45 43 41 41 40 38 35 32 31 31 32 34 35 35 36 35 35 34 34 34 34 33 32 31 31 29 29 30 31 31 30 30 31 31 30 29 28 28 28 29 29 29 32 34 34 33 33 33 34 34 36 38 41 43 42 40 40 40 40 41 43 44 45 47 47 48
75 72 68 64 63 62 62 64 66 66 63 60 56 53 52 53 53 50 47 46 45 43 42 41 40 38 36 34 32 31 32 34 36 36 36 36 36 36 36 35 35 35 34 32 31 32 32 33 33 33 32 31 30 30 30 30 30 30 31 29 28 30 33 34 35 35 35 34 35 38 40 41 42 42 42 42 42 42 43 45 46 48 49 50 50
79 76 73 69 66 63 63 63 64 65 64 63 61 58 56 55 55 53 50 48 47 45 43 41 40 39 38 37 35 34 33 33 34 35 37 37 37 37 36 35 36 36 34 32 33 34 35 36 36 35 34 33 31 30 31 31 32 33 34 33 32 32 33 34 35 35 35 35 38 40 42 41 41 42 43 44 43 44 45 47 48 50 51 51 51
Wind_Direction
2 266 253 276 283 219 181 187 214 232 234 270 339 15 28 40 57 63 72 70 57 56 61 63 66 68 64 63 69 76 78 81 68 59 66 76 76 76 82 86 87 88 89 90 91 91 91 91 91 92 92 91 91 92 91 92 92 92 92 93 93 93 94 94 95 96 96 97 98 99 100 100 101 102 102 103 102 102 102 102 102 102 102 101 101
11 6 215 241 236 210 196 192 208 232 234 248 302 359 26 35 57 70 69 66 58 55 56 59 63 65 63 58 61 69 75 79 78 68 69 77 81 81 84 87 89 90 91 92 93 93 92 92 92 92 92 93 93 93 93 92 92 92 92 92 93 93 94 95 95 95 96 97 97 98 99 99 100 101 101 101 101 101 101 101 101 100 100 100 99
11 9 189 205 211 200 198 198 202 225 234 240 286 332 14 28 54 70 62 55 53 55 54 54 61 65 62 56 55 60 66 71 79 81 76 79 85 87 86 87 89 90 91 93 94 94 94 94 94 94 94 94 94 94 94 94 94 93 93 93 94 94 95 95 96 97 97 98 98 99 99 100 100 100 100 100 100 100 100 99 99 99 99 98 98
10 6 352 199 203 197 195 199 202 216 230 236 266 298 337 17 51 65 63 55 48 53 55 52 60 65 64 59 53 57 64 70 79 86 86 87 90 94 92 89 89 90 92 93 93 94 95 95 95 95 96 96 96 96 96 95 95 96 96 96 96 96 96 97 97 98 98 99 99 100 100 100 100 100 100 100 99 99 99 98 98 98 97 97 96
11 6 355 241 204 199 196 196 200 208 222 229 226 257 288 342 39 70 74 60 47 52 57 56 63 67 67 63 56 58 66 73 81 87 91 92 94 96 97 96 94 93 93 93 93 94 95 95 96 96 96 96 96 96 97 97 97 97 97 98 98 98 98 98 98 98 99 99 99 100 100 100 100 100 99 99 98 98 98 97 97 96 96 95 95
10 8 359 325 221 206 203 197 197 202 214 219 200 230 256 276 314 83 94 70 55 57 61 61 67 72 72 69 63 63 69 76 85 90 94 96 97 98 98 100 100 98 97 96 96 96 95 95 95 95 95 96 96 96 96 97 97 97 97 97 97 97 98 97 98 98 98 98 98 98 98 99 99 98 98 98 98 97 97 96 96 96 95 94 94
8 8 3 346 269 217 208 201 198 198 209 214 195 220 236 244 262 187 110 97 66 41 57 66 72 78 79 78 72 70 74 80 89 95 98 99 100 100 100 100 101 100 99 99 99 98 97 96 96 96 96 96 96 96 96 96 96 96 95 96 96 96 96 96 96 96 96 96 96 96 96 97 97 97 97 97 97 97 96 96 95 94 93 92 91
5 6 5 355 323 237 214 204 202 199 205 211 199 213 224 229 251 249 139 140 83 11 43 68 77 84 86 88 84 77 80 86 94 101 102 102 101 101 102 101 101 101 101 100 100 99 98 98 97 97 97 98 98 97 96 96 95 95 94 94 94 94 95 94 94 94 94 94 94 94 95 95 95 95 96 95 95 95 95 94 93 92 91 90 89
3 4 4 0 345 279 223 208 202 202 203 210 206 211 222 225 243 240 188 191 152 358 35 75 88 95 95 98 96 87 86 90 100 106 106 104 103 102 102 102 102 102 101 101 100 100 99 99 99 99 99 99 99 98 97 96 95 94 93 93 92 92 92 92 92 92 92 93 93 93 93 94 94 94 94 94 94 94 93 93 92 91 90 89 87
359 3 3 1 355 325 238 211 203 202 201 208 208 213 228 229 234 227 203 210 203 356 29 88 102 111 107 105 108 101 94 95 106 112 110 106 104 102 102 102 103 103 103 103 102 101 100 100 99 99 100 100 99 98 97 96 95 93 92 91 90 89 88 88 88 89 90 90 91 92 93 94 95 95 96 95 95 94 93 92 90 89 87 85 83
355 1 2 1 358 346 271 216 206 203 203 205 206 210 226 231 227 218 209 217 220 287 18 97 115 131 122 113 117 115 106 102 110 119 117 111 107 104 102 103 103 105 105 105 104 103 102 101 101 100 100 100 99 97 96 94 93 92 91 90 88 87 87 86 87 87 88 89 90 91 93 94 95 96 96 95 94 93 91 89 86 83 82 79 76
351 358 360 1 359 354 322 228 209 205 205 205 204 205 218 227 225 219 216 218 223 241 268 111 129 153 142 125 125 129 124 114 115 124 125 119 113 108 105 105 106 107 107 107 107 106 104 103 102 101 100 99 98 96 94 92 91 90 88 87 87 86 86 86 87 88 88 89 89 90 92 92 93 93 92 90 88 86 85 83 81 79 76 72 69
343 353 356 359 0 357 344 255 216 209 207 206 205 203 210 221 225 226 225 221 223 230 201 130 147 172 169 149 135 139 141 130 123 130 135 131 121 114 110 110 110 111 112 111 110 109 107 106 104 103 101 99 98 96 94 92 91 89 87 86 85 84 85 85 85 86 87 88 88 89 89 90 90 89 88 86 83 81 80 80 79 76 71 64 60
335 344 350 354 359 358 352 297 224 214 210 207 205 204 206 214 221 226 229 224 222 229 212 161 168 181 187 181 160 153 153 144 134 136 145 145 134 123 116 116 117 117 117 116 114 112 110 109 107 105 104 102 100 97 95 93 91 89 87 86 84 83 82 82 82 82 83 84 85 87 87 87 87 85 84 83 81 79 77 75 73 69 62 54 47
329 336 343 348 353 356 354 321 226 216 213 208 205 206 207 211 218 224 229 225 221 229 226 209 195 188 193 196 180 166 164 156 147 145 153 158 152 136 124 123 124 123 123 120 117 115 113 111 110 108 107 105 102 99 96 94 92 90 87 85 83 81 80 79 79 78 78 79 81 82 83 83 82 81 79 78 75 72 68 66 63 57 48 41 34
322 327 336 342 347 350 350 325 216 211 212 210 206 207 209 212 216 221 227 223 220 227 229 231 209 192 194 199 185 172 172 166 159 156 159 166 167 155 137 131 133 132 130 127 123 119 117 115 112 111 109 107 104 101 99 96 93 89 87 84 81 79 78 78 77 77 77 77 78 78 79 80 79 78 76 74 70 65 60 55 49 42 35 29 20
315 318 328 335 340 344 343 322 210 203 208 211 208 206 208 213 215 219 223 221 219 222 227 231 206 192 194 196 185 174 176 173 166 164 166 170 173 169 155 140 139 140 138 135 130 126 122 119 116 114 112 110 107 104 100 96 91 87 83 80 78 76 76 76 76 77 77 77 78 78 79 79 78 75 71 65 59 54 49 43 36 29 24 20 12
306 307 318 328 333 338 339 325 223 200 202 207 209 207 206 210 214 217 221 218 219 221 223 222 201 191 193 194 184 174 176 180 173 170 172 174 177 178 173 157 147 146 145 144 139 134 128 124 122 119 117 115 112 109 105 100 94 89 84 81 79 78 77 77 78 78 78 78 77 77 76 74 68 62 54 48 43 39 35 30 26 20 15 12 7
298 298 306 319 326 332 337 329 263 206 200 201 204 206 205 208 212 214 218 218 217 221 220 216 200 193 194 195 187 176 177 184 182 176 175 179 181 183 183 175 163 156 155 152 148 143 136 132 129 127 124 121 118 114 110 105 100 94 89 84 80 78 76 76 77 78 78 78 75 72 68 62 53 45 39 35 30 28 24 19 15 10 3 358 354
293 299 301 308 318 324 333 330 297 220 204 200 199 201 203 206 210 212 215 218 218 219 219 217 207 198 197 199 197 190 185 186 187 183 180 181 183 185 188 186 180 172 166 162 157 152 147 141 137 133 131 128 124 119 113 107 101 95 88 81 77 74 72 72 71 70 69 66 64 59 53 47 42 36 30 24 19 13 7 2 359 356 349 343 339
289 299 300 299 308 317 326 329 313 246 211 203 198 197 199 203 209 210 212 216 218 218 217 218 216 206 201 203 206 208 201 192 191 190 187 184 182 185 189 190 190 185 178 172 168 164 159 151 144 139 137 134 130 126 120 113 105 96 88 80 76 74 72 72 71 68 62 54 49 44 39 35 32 29 22 13 6 360 353 349 349 349 345 341 337
276 290 298 297 303 313 321 326 319 275 221 207 200 196 197 200 206 210 211 213 216 217 216 217 220 215 208 206 210 214 211 202 197 195 193 189 185 185 187 190 192 190 186 182 178 175 171 162 153 148 143 139 135 130 123 115 104 96 87 80 75 70 67 63 61 59 55 48 38 29 27 30 34 32 22 11 4 359 353 350 348 348 347 347 346
267 283 294 297 301 308 315 320 318 292 237 213 205 199 197 199 203 209 211 211 213 216 216 216 220 222 217 212 211 214 215 210 203 199 197 195 191 190 189 191 193 192 191 190 188 185 180 173 165 158 151 144 135 126 118 109 98 90 83 78 72 61 53 46 39 36 34 29 20 17 30 49 47 32 14 6 2 355 352 349 347 346 349 352 353
264 275 285 292 296 300 307 313 314 301 258 222 211 205 200 200 202 206 210 211 211 214 216 215 217 221 223 218 213 214 217 214 208 203 202 201 198 195 194 197 201 201 200 197 197 195 189 184 178 169 158 149 137 123 113 104 94 83 73 70 63 51 36 27 24 16 9 10 15 23 42 42 11 356 353 352 351 351 350 350 351 354 357 357 355
262 269 275 285 288 291 297 305 311 307 280 236 219 211 206 203 203 206 209 212 213 213 213 214 214 217 223 223 218 216 216 218 214 209 206 206 205 203 201 203 208 211 210 207 205 202 196 192 188 181 170 161 151 137 121 104 82 63 56 54 47 39 26 17 12 359 351 354 359 359 349 339 337 337 338 340 345 348 351 357 5 8 5 359 354
257 263 269 276 278 278 282 294 305 309 297 258 230 219 213 209 206 207 209 213 215 214 213 212 212 213 217 222 223 220 218 219 220 217 214 213 214 214 212 211 213 215 215 213 210 206 202 198 196 190 185 182 177 166 153 339 331 336 8 27 21 18 12 5 355 342 333 327 319 312 315 320 323 323 324 332 341 347 353 2 8 8 3 356 350
255 260 265 268 269 270 271 281 293 297 297 275 242 227 221 216 213 211 212 214 216 216 214 213 212 211 213 217 221 224 223 222 224 223 222 221 222 224 224 221 218 218 218 217 213 209 206 205 202 198 196 196 194 190 211 294 304 304 307 326 347 354 352 344 336 330 325 319 309 305 306 310 314 314 317 327 336 344 351 354 351 351 351 349 345
259 261 263 263 266 269 267 270 279 284 285 280 253 233 225 222 219 217 217 219 219 219 217 215 214 212 212 214 217 221 224 226 226 227 228 228 229 230 230 228 225 222 221 220 216 214 212 211 209 206 206 206 203 202 226 270 288 291 288 294 312 322 323 321 323 323 321 316 306 299 299 302 307 312 320 328 333 336 337 335 333 335 340 343 343
257 260 261 262 265 271 268 264 268 274 276 277 265 245 232 226 224 223 223 224 224 224 221 219 218 215 212 214 216 218 221 225 228 229 231 232 234 233 231 229 227 224 222 220 218 217 217 217 216 214 214 213 213 222 240 260 268 270 272 279 291 298 303 310 314 316 320 321 314 302 297 300 307 321 335 339 335 332 331 332 332 334 339 344 343
252 255 259 262 266 270 267 261 262 266 269 272 273 263 246 236 231 229 228 228 229 228 226 223 223 220 214 213 215 217 219 223 227 229 230 233 235 234 230 227 226 224 221 219 218 218 220 221 222 221 220 220 224 232 241 250 258 265 270 277 286 290 297 305 313 319 326 333 329 315 311 313 316 331 345 345 340 336 337 337 335 335 341 345 342
249 250 254 261 266 267 264 260 258 260 264 268 273 276 267 250 240 236 233 232 232 231 229 226 226 226 219 214 215 217 219 222 227 230 230 231 233 233 230 226 224 222 220 219 219 221 223 225 226 225 224 226 229 234 238 244 252 260 266 275 284 288 296 307 315 321 326 334 334 328 326 322 318 332 345 344 340 339 340 340 337 336 340 341 339
247 248 248 253 257 257 259 259 255 256 259 263 269 276 279 268 254 244 238 235 233 232 230 227 225 227 224 218 216 217 218 222 228 231 231 229 229 231 230 226 222 221 220 219 221 223 225 227 228 228 229 230 233 236 241 249 253 257 262 270 278 285 297 307 311 315 320 325 328 330 330 326 322 335 343 342 340 338 340 343 344 343 340 338 337
246 246 242 240 239 241 251 256 254 251 253 257 262 269 275 275 267 256 245 238 234 231 230 228 225 226 225 221 218 217 217 220 226 231 232 229 226 227 229 227 224 221 221 222 225 228 230 231 231 231 233 235 237 240 246 253 256 257 261 268 276 285 295 300 298 303 312 314 313 317 321 322 317 323 332 336 335 335 339 343 343 341 337 333 334
243 243 238 234 232 235 244 253 252 248 248 251 254 259 266 270 267 264 255 244 235 229 227 226 225 226 225 222 220 219 218 219 223 227 230 229 225 224 226 226 225 224 223 225 229 233 236 237 235 235 236 238 240 243 248 252 254 256 261 268 277 287 294 295 290 291 299 302 303 304 305 301 299 308 317 322 327 330 331 333 336 335 333 331 333
238 239 237 232 231 233 238 243 246 246 244 245 248 250 257 262 261 262 260 251 240 230 225 223 223 226 225 221 221 222 221 222 223 224 226 227 225 224 224 223 224 224 225 226 229 233 237 238 236 235 235 238 241 244 247 250 251 255 261 268 277 283 288 290 289 287 289 294 298 298 299 298 298 302 307 311 320 320 312 316 329 332 330 329 331
234 236 236 232 230 231 234 237 241 245 243 242 244 245 249 255 254 253 256 254 244 234 228 223 223 225 224 221 221 223 225 227 226 224 225 225 224 224 222 220 221 223 225 226 228 231 233 232 231 231 233 239 243 246 248 250 253 257 262 268 274 279 283 287 289 288 288 291 296 299 300 300 299 300 299 301 309 312 307 313 324 327 326 326 328
233 232 232 231 229 230 233 236 239 242 240 239 241 241 244 249 251 246 245 247 243 236 230 225 224 224 222 221 223 225 228 230 229 227 226 224 222 222 220 219 220 222 224 226 229 230 228 227 228 229 233 240 246 247 248 250 252 257 263 267 271 276 281 287 289 289 289 293 298 301 302 303 302 299 295 295 301 307 313 319 322 323 323 324 327
231 229 228 229 229 230 233 235 236 238 238 237 239 240 241 245 251 249 242 237 236 233 228 226 225 223 220 220 224 228 231 231 228 228 228 224 221 220 219 218 219 221 223 226 228 227 226 226 228 230 234 239 242 243 245 247 251 257 263 266 271 277 281 287 289 287 288 293 297 301 303 305 307 304 299 297 299 304 312 318 319 320 321 323 325
229 228 226 226 228 230 233 234 233 234 236 236 237 239 240 242 247 252 246 236 230 227 224 224 223 220 218 220 225 231 233 231 228 228 229 225 221 219 219 217 218 220 223 225 225 224 224 226 227 229 232 235 238 241 244 246 251 258 265 269 274 279 283 289 289 287 288 293 297 301 302 304 307 309 307 305 303 305 311 316 317 319 320 322 325
230 228 225 225 226 227 230 232 232 231 233 233 234 237 239 240 241 246 246 237 229 226 223 220 219 218 218 222 228 232 231 229 228 228 227 225 222 220 219 218 218 219 221 223 222 221 222 224 225 227 229 232 236 241 243 246 252 259 266 272 277 281 286 289 288 287 291 297 301 302 303 303 305 309 311 311 309 310 313 316 317 318 320 322 323
233 230 227 226 226 227 228 230 230 229 230 230 231 232 235 237 237 238 239 235 230 226 222 218 217 217 220 225 230 230 228 227 227 226 224 222 221 221 220 219 218 219 220 221 220 220 222 224 225 226 229 232 236 240 244 249 255 262 269 276 281 284 287 287 286 288 293 300 303 303 303 302 304 308 311 312 312 313 316 318 318 319 320 320 320
235 232 230 227 226 227 229 229 228 228 229 230 230 230 232 234 233 233 233 233 230 226 222 219 218 218 221 226 229 227 225 225 225 224 221 220 220 220 220 220 220 220 220 220 220 220 222 224 226 230 233 236 239 244 252 259 267 273 278 282 285 286 287 286 286 287 292 297 300 300 301 302 303 306 310 312 312 315 317 318 319 320 320 319 317
235 233 232 228 226 227 229 228 226 226 227 229 229 230 230 232 231 229 230 231 231 227 224 222 221 220 222 225 226 225 223 224 224 223 221 220 220 219 220 221 222 222 223 223 223 223 223 225 229 234 239 245 250 257 264 270 275 279 280 280 282 283 285 286 286 287 290 294 296 297 300 303 303 304 307 309 311 314 317 317 318 319 319 317 315
235 234 233 230 226 226 228 228 226 225 226 228 228 229 230 232 231 228 226 229 231 229 227 226 224 222 223 224 225 224 223 223 224 223 222 222 222 221 222 224 225 225 227 228 229 230 231 232 235 240 247 253 257 263 269 271 272 273 273 274 278 281 282 284 286 288 291 294 296 297 299 302 303 302 303 306 308 312 314 314 315 317 317 317 315
235 233 232 230 226 224 226 227 227 225 226 228 228 227 228 231 232 228 224 226 229 229 228 228 228 226 224 223 223 223 223 222 223 224 225 225 225 225 226 228 228 229 231 233 236 238 240 243 245 249 254 257 259 263 267 269 271 272 271 273 277 280 281 282 285 287 292 296 298 299 299 300 302 302 301 303 306 309 311 311 313 314 315 316 314
234 233 231 229 227 224 224 225 226 226 227 228 228 226 226 228 230 228 225 224 226 227 226 227 229 228 225 223 222 222 223 223 223 225 226 226 227 228 229 231 233 234 236 239 242 244 246 249 250 250 253 258 262 263 263 266 268 270 270 272 275 278 280 282 284 287 292 296 298 298 298 301 305 305 303 302 303 305 307 308 309 311 313 315 314
233 233 231 229 228 225 223 223 224 225 226 227 227 226 224 225 227 227 225 224 224 226 226 225 227 228 227 225 223 223 223 224 225 226 227 228 229 231 234 236 238 238 240 243 247 249 250 250 249 249 253 259 262 261 260 262 264 266 266 267 270 275 278 280 283 287 292 295 294 293 297 302 305 306 303 302 303 303 303 303 305 306 309 312 313
231 231 231 229 228 226 224 223 223 225 225 225 225 225 224 224 225 225 224 224 224 226 226 226 226 228 228 227 226 225 225 226 227 228 228 230 232 235 238 240 241 241 240 243 246 250 252 252 252 253 258 263 265 264 263 264 263 262 261 262 266 273 277 280 282 285 291 294 290 287 294 302 305 304 302 300 301 301 301 300 301 302 305 307 309
229 230 230 229 227 227 225 223 223 224 224 223 223 224 224 224 223 223 224 224 225 226 226 227 228 229 230 230 229 229 228 229 229 230 231 232 235 238 241 242 243 243 242 243 246 249 252 255 256 257 261 266 268 269 269 268 265 261 261 265 270 273 276 279 282 284 288 290 288 287 294 300 303 302 301 299 299 300 300 300 300 301 302 304 306
228 228 229 228 227 227 226 225 224 225 224 223 223 225 226 225 223 223 224 224 225 226 225 226 228 230 231 232 232 232 232 232 232 232 233 234 236 239 241 242 243 244 244 246 250 253 255 257 258 260 263 265 265 267 270 270 268 265 263 265 268 270 273 275 277 280 282 284 284 287 292 296 299 299 299 298 299 300 300 300 300 301 302 303 304
226 226 227 228 228 227 227 226 225 225 226 226 226 227 228 226 224 224 224 225 225 226 225 224 226 230 233 234 234 235 236 237 236 235 235 236 237 240 241 242 243 243 244 247 253 257 259 259 259 261 263 264 264 268 271 271 270 268 265 264 264 266 268 270 273 276 278 279 281 285 289 293 296 297 298 298 298 299 300 300 300 302 302 302 303
Height
10974 10974 10975 10976 10975 10975 10976 10977 10977 10977 10977 10978 10979 10978 10979 10979 10979 10979 10979 10979 10979 10979 10979 10978 10979 10978 10977 10975 10974 10974 10975 10976 10974 10970 10968 10966 10963 10960 10958 10957 10955 10954 10953 10952 10951 10950 10949 10948 10947 10946 10944 10943 10942 10942 10942 10942 10942 10943 10943 10942 10942 10942 10942 10943 10943 10944 10945 10945 10946 10947 10948 10949 10951 10952 10953 10955 10956 10957 10958 10958 10959 10960 10960 10961 10962
10973 10974 10974 10975 10975 10975 10976 10977 10977 10977 10977 10978 10979 10979 10979 10980 10980 10980 10980 10980 10980 10979 10979 10979 10978 10977 10977 10976 10975 10975 10975 10975 10972 10970 10970 10968 10965 10963 10962 10960 10958 10957 10956 10956 10954 10953 10952 10951 10950 10949 10947 10946 10946 10946 10945 10946 10946 10946 10946 10946 10946 10946 10946 10947 10947 10948 10948 10949 10950 10951 10952 10953 10954 10955 10956 10957 10958 10959 10960 10961 10961 10962 10963 10964 10964
10973 10973 10974 10974 10975 10975 10976 10977 10977 10977 10977 10978 10979 10979 10980 10980 10980 10980 10980 10980 10980 10979 10979 10979 10979 10977 10976 10976 10975 10975 10974 10973 10972 10970 10970 10969 10966 10965 10965 10963 10962 10961 10960 10959 10958 10957 10956 10955 10954 10953 10951 10950 10950 10949 10949 10949 10949 10949 10949 10950 10950 10950 10950 10950 10951 10951 10952 10952 10953 10954 10955 10956 10957 10958 10959 10960 10961 10962 10962 10963 10964 10965 10966 10966 10967
10972 10973 10973 10973 10974 10975 10975 10976 10976 10976 10977 10978 10979 10979 10980 10981 10981 10981 10981 10981 10980 10981 10981 10981 10980 10978 10977 10976 10976 10976 10975 10974 10973 10972 10971 10970 10968 10968 10967 10966 10965 10964 10964 10963 10962 10960 10960 10959 10957 10956 10956 10954 10953 10953 10952 10952 10952 10952 10953 10953 10953 10953 10954 10954 10954 10955 10955 10956 10956 10957 10958 10959 10960 10961 10962 10963 10963 10964 10965 10966 10967 10968 10968 10969 10970
10972 10972 10972 10973 10973 10974 10975 10976 10976 10976 10976 10978 10979 10980 10980 10981 10981 10982 10982 10982 10983 10983 10983 10982 10981 10979 10978 10977 10977 10977 10976 10976 10975 10974 10973 10972 10971 10970 10969 10968 10968 10967 10967 10966 10965 10964 10963 10962 10961 10960 10960 10958 10957 10956 10956 10956 10956 10956 10956 10956 10956 10957 10957 10957 10958 10958 10959 10959 10960 10960 10961 10962 10963 10964 10965 10966 10966 10967 10968 10969 10970 10971 10971 10972 10972
10972 10972 10972 10972 10973 10973 10974 10975 10975 10975 10976 10977 10979 10980 10980 10981 10982 10982 10983 10983 10984 10984 10984 10983 10982 10981 10979 10979 10979 10978 10978 10977 10977 10976 10975 10974 10974 10972 10972 10971 10970 10970 10969 10969 10969 10968 10967 10966 10965 10964 10963 10962 10961 10960 10960 10960 10960 10960 10960 10960 10960 10960 10961 10961 10961 10962 10963 10963 10963 10964 10964 10965 10966 10967 10968 10969 10970 10970 10971 10972 10973 10973 10974 10975 10975
10972 10972 10971 10971 10972 10972 10973 10974 10974 10975 10975 10976 10978 10979 10980 10981 10981 10982 10983 10984 10985 10985 10985 10984 10983 10982 10981 10981 10981 10980 10979 10979 10979 10978 10977 10977 10976 10975 10974 10974 10973 10973 10972 10972 10971 10970 10969 10969 10968 10967 10966 10966 10965 10964 10964 10964 10964 10964 10964 10964 10964 10964 10965 10965 10965 10966 10966 10967 10967 10967 10968 10969 10969 10970 10971 10972 10973 10974 10974 10975 10976 10976 10977 10977 10978
10972 10971 10971 10970 10970 10971 10972 10973 10974 10974 10974 10976 10977 10979 10980 10981 10981 10982 10982 10984 10984 10985 10985 10984 10984 10983 10982 10982 10982 10982 10981 10981 10981 10981 10980 10979 10979 10978 10977 10977 10976 10975 10975 10974 10974 10973 10972 10971 10970 10970 10969 10969 10969 10968 10968 10968 10968 10968 10968 10968 10968 10968 10968 10969 10969 10970 10970 10970 10971 10971 10972 10973 10973 10974 10975 10975 10976 10977 10977 10978 10979 10979 10980 10980 10981
10972 10970 10970 10969 10969 10970 10971 10972 10973 10973 10974 10975 10976 10978 10979 10981 10981 10981 10982 10983 10984 10985 10985 10985 10984 10984 10984 10984 10984 10984 10983 10983 10983 10983 10982 10982 10981 10981 10980 10979 10978 10978 10977 10976 10976 10975 10974 10973 10973 10973 10972 10972 10972 10972 10972 10972 10972 10972 10973 10973 10972 10972 10973 10973 10973 10974 10974 10974 10974 10975 10975 10976 10977 10977 10978 10979 10979 10980 10980 10981 10981 10982 10982 10982 10983
10971 10970 10969 10968 10968 10968 10969 10971 10972 10973 10973 10974 10975 10977 10978 10980 10981 10981 10981 10982 10983 10984 10985 10985 10985 10985 10985 10985 10985 10985 10985 10985 10985 10985 10984 10984 10984 10983 10983 10982 10981 10980 10979 10978 10978 10977 10976 10976 10976 10976 10976 10976 10975 10975 10975 10975 10976 10976 10976 10976 10976 10976 10976 10977 10977 10977 10978 10978 10978 10978 10979 10979 10980 10980 10981 10981 10982 10982 10983 10983 10984 10984 10984 10984 10984
10970 10969 10968 10968 10967 10967 10968 10969 10971 10972 10972 10973 10974 10976 10977 10979 10980 10981 10981 10982 10982 10983 10984 10984 10985 10985 10986 10985 10986 10986 10986 10986 10986 10986 10986 10986 10986 10985 10984 10984 10983 10982 10981 10980 10979 10979 10979 10979 10979 10979 10979 10979 10979 10979 10979 10979 10979 10979 10980 10980 10980 10980 10980 10980 10980 10981 10981 10981 10981 10981 10981 10982 10983 10983 10983 10984 10984 10985 10985 10985 10985 10985 10985 10985 10985
10970 10969 10968 10967 10966 10965 10966 10968 10970 10971 10972 10972 10973 10975 10976 10977 10979 10980 10981 10981 10982 10983 10984 10984 10985 10986 10986 10986 10986 10986 10987 10987 10987 10987 10987 10987 10987 10987 10986 10986 10985 10984 10983 10982 10981 10981 10981 10981 10981 10981 10982 10982 10982 10982 10982 10982 10982 10982 10983 10983 10983 10982 10982 10983 10983 10983 10983 10983 10983 10984 10984 10985 10985 10986 10986 10986 10986 10986 10987 10987 10987 10987 10986 10986 10986
10969 10968 10967 10966 10965 10964 10964 10966 10968 10970 10971 10972 10972 10974 10975 10976 10977 10979 10980 10981 10981 10982 10983 10983 10984 10985 10986 10986 10987 10987 10987 10987 10987 10988 10988 10988 10988 10988 10988 10987 10987 10986 10985 10985 10984 10983 10983 10983 10984 10984 10984 10984 10985 10985 10984 10984 10985 10985 10985 10985 10985 10985 10985 10985 10985 10985 10985 10985 10986 10986 10986 10987 10987 10987 10988 10988 10988 10988 10988 10988 10988 10988 10987 10987 10987
10969 10967 10966 10965 10964 10963 10963 10964 10966 10969 10970 10971 10971 10972 10974 10975 10976 10978 10979 10980 10981 10981 10982 10982 10983 10984 10986 10986 10987 10987 10987 10987 10987 10988 10988 10989 10989 10989 10989 10989 10989 10988 10987 10987 10986 10986 10985 10985 10985 10985 10986 10986 10986 10987 10987 10987 10987 10987 10987 10987 10987 10987 10987 10987 10987 10987 10987 10988 10988 10988 10988 10988 10989 10989 10989 10989 10989 10989 10989 10989 10988 10988 10988 10988 10987
10969 10967 10965 10964 10963 10963 10962 10963 10964 10967 10969 10970 10970 10971 10973 10974 10975 10976 10978 10979 10980 10980 10981 10981 10982 10983 10985 10986 10986 10987 10987 10987 10987 10988 10988 10989 10990 10990 10990 10990 10990 10990 10989 10989 10988 10988 10987 10987 10987 10987 10987 10987 10988 10988 10988 10988 10989 10989 10989 10989 10989 10989 10989 10989 10989 10989 10989 10989 10989 10990 10990 10990 10990 10990 10990 10990 10990 10990 10990 10989 10989 10989 10989 10988 10988
10967 10966 10965 10963 10963 10962 10962 10962 10963 10965 10967 10969 10969 10970 10971 10973 10974 10975 10976 10977 10979 10979 10980 10981 10981 10982 10984 10985 10986 10986 10987 10987 10987 10988 10988 10989 10990 10990 10990 10991 10991 10991 10991 10990 10990 10989 10989 10989 10989 10988 10989 10989 10989 10989 10989 10990 10990 10990 10990 10991 10991 10991 10991 10991 10990 10990 10990 10990 10991 10991 10991 10991 10991 10990 10990 10990 10990 10990 10990 10990 10990 10989 10989 10988 10988
10965 10964 10964 10963 10962 10962 10961 10961 10962 10963 10965 10967 10969 10969 10970 10971 10973 10974 10975 10976 10977 10978 10979 10980 10981 10981 10983 10984 10985 10986 10987 10987 10987 10988 10988 10989 10989 10990 10991 10991 10991 10992 10992 10992 10991 10991 10990 10990 10990 10990 10990 10990 10990 10990 10990 10991 10991 10991 10992 10992 10992 10992 10992 10992 10992 10992 10991 10991 10991 10991 10991 10991 10991 10991 10991 10991 10991 10990 10990 10990 10990 10989 10989 10988 10988
10962 10962 10963 10962 10962 10961 10961 10961 10961 10961 10963 10965 10967 10969 10969 10971 10972 10973 10974 10975 10976 10977 10979 10979 10980 10981 10982 10984 10985 10985 10986 10987 10987 10987 10988 10988 10989 10990 10991 10991 10992 10992 10992 10992 10992 10992 10992 10991 10991 10991 10990 10990 10990 10990 10991 10991 10991 10992 10992 10993 10993 10993 10993 10993 10992 10992 10992 10992 10992 10992 10992 10992 10992 10991 10991 10991 10991 10991 10991 10990 10990 10990 10989 10988 10988
10960 10960 10961 10961 10961 10961 10961 10960 10960 10960 10961 10963 10965 10967 10968 10970 10971 10972 10973 10974 10975 10976 10978 10978 10979 10980 10981 10983 10984 10985 10986 10986 10987 10987 10988 10988 10989 10990 10991 10991 10992 10992 10993 10993 10993 10993 10992 10992 10992 10991 10991 10991 10991 10991 10991 10991 10992 10992 10993 10993 10993 10994 10993 10993 10993 10993 10993 10993 10993 10993 10993 10993 10992 10992 10992 10992 10991 10991 10991 10991 10990 10990 10989 10988 10988
10960 10959 10959 10960 10960 10960 10960 10960 10960 10959 10960 10961 10963 10965 10967 10968 10970 10971 10972 10973 10974 10975 10976 10977 10978 10980 10981 10982 10983 10984 10985 10986 10986 10987 10987 10988 10989 10989 10990 10991 10992 10993 10993 10993 10993 10993 10993 10993 10992 10992 10992 10992 10991 10992 10992 10992 10992 10992 10993 10994 10994 10995 10994 10994 10994 10994 10994 10994 10994 10993 10993 10993 10993 10993 10992 10992 10992 10991 10991 10991 10990 10990 10989 10988 10987
10960 10960 10959 10959 10959 10958 10959 10959 10959 10959 10959 10960 10961 10963 10965 10966 10968 10969 10971 10972 10973 10974 10975 10976 10977 10979 10980 10981 10982 10983 10984 10985 10986 10986 10987 10988 10988 10989 10990 10991 10992 10993 10993 10993 10994 10994 10994 10993 10993 10993 10992 10992 10992 10992 10992 10992 10993 10993 10993 10994 10994 10995 10995 10995 10995 10994 10994 10994 10994 10994 10994 10994 10993 10993 10992 10992 10991 10991 10991 10990 10990 10989 10989 10988 10987
10959 10959 10960 10960 10959 10958 10957 10958 10958 10958 10958 10959 10959 10961 10962 10964 10966 10967 10969 10970 10971 10972 10973 10975 10976 10977 10979 10980 10981 10982 10983 10984 10985 10986 10987 10987 10988 10989 10990 10991 10992 10992 10993 10993 10994 10994 10994 10994 10994 10993 10993 10993 10993 10993 10993 10993 10993 10993 10994 10994 10994 10995 10995 10995 10995 10995 10995 10995 10994 10994 10994 10993 10993 10992 10992 10991 10991 10991 10990 10990 10989 10989 10988 10987 10986
10956 10958 10960 10960 10959 10957 10956 10956 10957 10957 10957 10957 10958 10959 10960 10962 10964 10965 10967 10968 10970 10971 10972 10973 10974 10976 10977 10978 10980 10981 10982 10983 10984 10985 10986 10987 10988 10988 10989 10990 10991 10992 10993 10993 10993 10994 10994 10994 10994 10994 10994 10994 10994 10994 10993 10993 10994 10994 10994 10994 10994 10995 10995 10995 10995 10995 10995 10995 10994 10994 10993 10993 10992 10992 10991 10991 10991 10990 10989 10989 10988 10988 10987 10986 10985
10954 10955 10958 10958 10958 10956 10955 10955 10955 10956 10956 10956 10957 10957 10958 10959 10961 10963 10964 10966 10967 10969 10970 10971 10972 10974 10975 10977 10978 10979 10981 10982 10983 10984 10986 10986 10987 10988 10989 10990 10991 10991 10992 10993 10993 10993 10994 10994 10994 10995 10995 10995 10995 10995 10994 10994 10994 10995 10995 10995 10995 10995 10995 10995 10995 10995 10995 10995 10994 10994 10993 10992 10992 10991 10991 10990 10990 10989 10989 10988 10987 10987 10986 10985 10984
10952 10953 10955 10956 10956 10955 10954 10954 10954 10955 10955 10956 10956 10956 10957 10957 10959 10960 10962 10963 10965 10966 10967 10968 10970 10971 10973 10975 10976 10978 10979 10981 10982 10983 10985 10986 10987 10987 10988 10989 10990 10991 10991 10992 10992 10993 10993 10994 10994 10995 10995 10995 10995 10995 10995 10995 10995 10995 10995 10995 10995 10995 10995 10995 10995 10995 10995 10994 10994 10993 10993 10992 10992 10991 10990 10990 10989 10989 10988 10987 10986 10986 10985 10984 10983
10951 10952 10953 10954 10954 10954 10953 10953 10953 10953 10954 10954 10955 10956 10956 10956 10957 10958 10959 10960 10962 10963 10965 10966 10967 10969 10971 10973 10974 10976 10978 10979 10981 10982 10983 10985 10986 10987 10988 10988 10989 10990 10991 10991 10992 10992 10993 10993 10993 10994 10995 10995 10995 10995 10996 10996 10996 10996 10996 10996 10995 10995 10995 10995 10995 10994 10994 10994 10993 10993 10992 10992 10991 10990 10990 10989 10989 10988 10987 10987 10986 10985 10984 10983 10982
10950 10950 10950 10951 10952 10952 10952 10952 10952 10952 10952 10953 10953 10955 10955 10955 10956 10956 10957 10958 10959 10960 10962 10963 10965 10967 10969 10971 10972 10974 10976 10977 10979 10980 10982 10983 10984 10985 10986 10987 10988 10989 10990 10991 10991 10991 10992 10992 10993 10993 10994 10994 10994 10995 10995 10996 10996 10996 10996 10996 10995 10995 10995 10995 10994 10994 10994 10993 10993 10992 10991 10991 10990 10989 10989 10988 10988 10987 10987 10986 10985 10984 10983 10982 10981
10947 10947 10948 10948 10949 10950 10950 10950 10951 10951 10951 10951 10952 10952 10953 10954 10955 10955 10956 10956 10957 10958 10959 10961 10962 10964 10966 10968 10970 10972 10974 10976 10977 10979 10980 10981 10982 10984 10985 10986 10987 10988 10989 10990 10990 10991 10991 10992 10992 10993 10993 10993 10993 10994 10994 10995 10995 10995 10995 10995 10995 10994 10994 10994 10994 10993 10993 10992 10991 10991 10990 10989 10989 10988 10988 10988 10987 10987 10986 10985 10984 10983 10982 10981 10979
10945 10945 10945 10945 10946 10948 10949 10948 10949 10949 10949 10949 10950 10950 10951 10952 10953 10954 10954 10955 10955 10956 10957 10959 10960 10961 10963 10965 10967 10969 10971 10973 10975 10977 10978 10979 10981 10982 10983 10984 10985 10986 10987 10988 10989 10990 10991 10991 10991 10992 10992 10992 10993 10993 10993 10993 10994 10994 10994 10994 10994 10994 10994 10993 10993 10992 10992 10991 10990 10989 10988 10988 10988 10988 10987 10987 10986 10985 10985 10984 10983 10982 10981 10979 10978
10942 10942 10941 10942 10943 10946 10946 10947 10947 10947 10948 10948 10948 10948 10949 10950 10951 10951 10952 10953 10954 10954 10956 10957 10957 10959 10960 10962 10964 10966 10969 10971 10973 10974 10976 10977 10979 10980 10981 10982 10983 10985 10986 10987 10988 10989 10990 10990 10991 10991 10992 10992 10992 10992 10992 10992 10993 10993 10993 10993 10993 10993 10993 10992 10992 10991 10990 10989 10988 10988 10987 10987 10987 10987 10986 10986 10985 10984 10983 10983 10982 10980 10979 10978 10976
10938 10938 10938 10939 10941 10942 10943 10945 10945 10945 10945 10946 10946 10946 10947 10947 10948 10949 10950 10951 10951 10952 10953 10954 10955 10956 10958 10959 10961 10963 10965 10967 10969 10971 10973 10975 10976 10978 10979 10980 10982 10983 10984 10985 10987 10987 10988 10989 10990 10990 10991 10991 10992 10992 10992 10992 10992 10992 10992 10992 10992 10992 10992 10992 10991 10990 10990 10989 10988 10987 10987 10986 10986 10986 10985 10985 10984 10983 10982 10981 10980 10979 10977 10976 10974
10933 10934 10935 10936 10938 10939 10940 10941 10942 10942 10942 10944 10944 10945 10945 10945 10945 10946 10946 10947 10949 10950 10950 10951 10953 10954 10955 10956 10958 10960 10962 10964 10966 10968 10970 10972 10974 10975 10977 10978 10979 10981 10982 10984 10985 10986 10987 10988 10988 10989 10990 10990 10990 10991 10991 10991 10991 10991 10991 10991 10991 10991 10991 10990 10990 10989 10989 10988 10987 10987 10986 10986 10985 10985 10984 10983 10982 10982 10981 10980 10978 10977 10975 10974 10972
10928 10929 10930 10932 10934 10935 10936 10937 10938 10939 10940 10941 10942 10943 10943 10943 10943 10943 10943 10944 10945 10946 10947 10949 10950 10951 10952 10954 10955 10957 10959 10961 10963 10965 10967 10969 10971 10973 10974 10976 10977 10979 10981 10982 10983 10984 10985 10986 10987 10988 10988 10989 10989 10989 10989 10990 10990 10990 10990 10990 10990 10990 10989 10989 10989 10988 10988 10987 10987 10986 10986 10985 10984 10984 10983 10982 10981 10980 10979 10977 10976 10975 10973 10971 10969
10921 10922 10924 10928 10930 10932 10933 10934 10935 10936 10937 10938 10939 10940 10941 10940 10940 10940 10941 10941 10942 10943 10944 10946 10947 10949 10950 10951 10952 10954 10957 10959 10961 10962 10964 10966 10968 10970 10972 10973 10975 10977 10978 10980 10981 10982 10983 10984 10985 10986 10987 10987 10987 10988 10988 10988 10988 10988 10988 10988 10988 10988 10988 10987 10987 10987 10987 10986 10986 10985 10985 10984 10983 10983 10982 10981 10979 10978 10976 10975 10974 10972 10970 10968 10967
10915 10916 10919 10923 10925 10927 10929 10932 10933 10932 10933 10935 10936 10937 10938 10938 10938 10938 10938 10939 10940 10940 10941 10943 10944 10946 10947 10949 10950 10952 10954 10956 10958 10960 10961 10963 10965 10967 10968 10970 10972 10974 10975 10977 10978 10980 10981 10982 10983 10984 10985 10985 10986 10986 10986 10986 10986 10987 10987 10987 10987 10986 10986 10986 10986 10985 10985 10984 10984 10983 10983 10983 10982 10981 10980 10979 10977 10976 10974 10972 10971 10969 10968 10966 10964
10910 10912 10915 10918 10919 10921 10923 10926 10928 10928 10930 10932 10933 10934 10934 10934 10934 10935 10935 10936 10937 10938 10939 10940 10942 10943 10945 10947 10948 10950 10952 10954 10956 10957 10959 10960 10962 10963 10965 10967 10969 10971 10972 10974 10975 10977 10978 10979 10980 10981 10982 10983 10984 10984 10985 10985 10985 10985 10985 10985 10985 10985 10985 10984 10984 10983 10983 10982 10982 10981 10981 10980 10980 10979 10978 10977 10975 10973 10972 10970 10969 10967 10965 10963 10961
10904 10906 10908 10910 10912 10914 10916 10919 10921 10923 10926 10928 10929 10930 10931 10931 10931 10931 10932 10933 10934 10936 10937 10938 10939 10941 10943 10945 10946 10948 10949 10951 10953 10955 10956 10958 10959 10961 10962 10964 10966 10968 10969 10971 10973 10974 10975 10976 10977 10978 10979 10980 10981 10982 10982 10983 10983 10984 10984 10984 10984 10983 10983 10983 10982 10981 10981 10981 10980 10980 10979 10978 10977 10976 10976 10974 10971 10969 10969 10968 10966 10964 10963 10960 10959
10894 10897 10899 10901 10904 10907 10910 10913 10916 10918 10921 10924 10925 10926 10927 10928 10928 10928 10928 10929 10930 10932 10934 10936 10937 10939 10941 10943 10944 10946 10948 10949 10950 10952 10953 10955 10957 10958 10960 10961 10963 10965 10967 10968 10970 10971 10972 10974 10975 10976 10977 10978 10978 10979 10980 10980 10981 10981 10981 10981 10982 10981 10981 10980 10980 10979 10979 10978 10978 10977 10977 10976 10975 10974 10973 10972 10969 10966 10966 10966 10964 10962 10960 10958 10956
10883 10886 10890 10893 10897 10900 10903 10907 10910 10913 10916 10919 10921 10923 10924 10925 10926 10926 10926 10926 10927 10929 10931 10933 10935 10936 10938 10940 10942 10944 10945 10947 10948 10949 10950 10952 10954 10956 10957 10959 10961 10963 10964 10966 10967 10968 10970 10971 10972 10973 10974 10975 10976 10977 10978 10978 10979 10979 10979 10979 10979 10979 10978 10978 10978 10977 10976 10976 10976 10975 10974 10974 10973 10972 10971 10969 10967 10965 10964 10963 10961 10959 10957 10955 10953
10877 10880 10883 10886 10889 10893 10897 10901 10905 10908 10910 10913 10916 10918 10920 10921 10922 10923 10924 10924 10925 10926 10928 10930 10932 10934 10936 10938 10939 10941 10943 10945 10946 10947 10948 10949 10951 10953 10955 10957 10958 10960 10962 10963 10964 10966 10967 10968 10970 10971 10972 10973 10974 10975 10975 10976 10977 10977 10977 10977 10977 10976 10976 10976 10975 10974 10974 10973 10973 10972 10971 10971 10970 10969 10968 10967 10965 10963 10962 10960 10958 10956 10954 10952 10950
10872 10875 10878 10880 10884 10888 10891 10895 10899 10902 10904 10907 10909 10913 10915 10917 10918 10919 10921 10922 10922 10923 10925 10927 10929 10931 10933 10935 10937 10939 10941 10943 10944 10945 10946 10947 10949 10951 10953 10954 10956 10957 10959 10960 10962 10963 10965 10966 10968 10969 10970 10971 10972 10973 10973 10974 10974 10974 10974 10974 10974 10974 10973 10973 10973 10972 10971 10971 10970 10969 10969 10968 10967 10967 10965 10964 10963 10961 10960 10957 10955 10953 10951 10949 10947
10864 10868 10871 10874 10878 10882 10885 10889 10893 10896 10898 10901 10904 10907 10910 10913 10914 10916 10917 10918 10919 10921 10922 10924 10926 10928 10930 10932 10934 10936 10938 10940 10941 10943 10944 10945 10947 10949 10950 10952 10954 10955 10957 10958 10959 10961 10962 10964 10965 10966 10967 10969 10970 10970 10971 10971 10971 10971 10971 10971 10971 10971 10970 10970 10970 10969 10968 10968 10967 10967 10966 10965 10964 10964 10962 10961 10960 10958 10956 10954 10952 10950 10948 10946 10944
10855 10860 10864 10868 10872 10876 10879 10882 10886 10890 10893 10896 10899 10903 10905 10908 10910 10911 10913 10914 10916 10917 10919 10921 10923 10925 10927 10929 10930 10932 10934 10936 10938 10941 10943 10944 10945 10947 10948 10950 10951 10953 10954 10956 10958 10959 10960 10962 10963 10964 10965 10967 10968 10967 10968 10968 10968 10968 10968 10968 10968 10967 10967 10967 10966 10966 10965 10965 10964 10963 10962 10961 10960 10960 10959 10957 10956 10955 10953 10951 10948 10946 10944 10942 10940
10847 10851 10856 10861 10865 10869 10872 10876 10879 10883 10887 10890 10894 10898 10901 10904 10906 10907 10909 10911 10912 10914 10916 10918 10919 10921 10923 10925 10927 10929 10931 10933 10936 10938 10940 10942 10943 10945 10946 10948 10949 10951 10952 10954 10955 10957 10958 10960 10961 10962 10963 10964 10965 10965 10965 10965 10965 10965 10965 10965 10964 10964 10963 10963 10963 10962 10962 10961 10961 10960 10958 10957 10956 10956 10955 10953 10952 10951 10949 10947 10944 10942 10940 10938 10936
10838 10842 10847 10853 10857 10861 10865 10869 10873 10878 10881 10884 10888 10892 10895 10899 10901 10903 10905 10906 10908 10910 10912 10914 10916 10918 10920 10922 10923 10925 10927 10930 10933 10935 10937 10939 10941 10942 10944 10945 10947 10948 10950 10951 10953 10955 10956 10958 10959 10960 10961 10961 10961 10962 10961 10961 10962 10962 10962 10961 10961 10961 10960 10960 10959 10959 10958 10958 10957 10956 10955 10953 10953 10952 10951 10949 10948 10947 10945 10943 10940 10937 10935 10934 10932
10829 10833 10838 10844 10849 10853 10857 10862 10867 10871 10874 10878 10882 10886 10889 10892 10895 10897 10899 10901 10903 10905 10908 10910 10912 10914 10916 10918 10920 10921 10924 10927 10929 10932 10934 10936 10938 10939 10941 10942 10944 10946 10948 10949 10950 10952 10953 10955 10956 10957 10958 10957 10958 10958 10958 10957 10957 10958 10958 10958 10958 10957 10957 10956 10956 10955 10955 10954 10953 10953 10951 10950 10949 10948 10947 10945 10944 10942 10941 10939 10936 10933 10930 10929 10928
10820 10825 10830 10835 10840 10845 10849 10854 10859 10863 10867 10871 10876 10880 10883 10886 10889 10891 10894 10896 10898 10900 10903 10905 10907 10910 10912 10914 10916 10918 10920 10923 10925 10928 10931 10933 10935 10937 10939 10940 10941 10943 10945 10946 10948 10949 10950 10952 10953 10954 10954 10954 10954 10954 10954 10953 10953 10954 10954 10954 10954 10953 10953 10952 10952 10951 10951 10950 10949 10949 10947 10946 10945 10944 10943 10941 10940 10938 10936 10935 10933 10930 10927 10926 10924
10810 10816 10821 10826 10831 10836 10841 10846 10851 10856 10860 10865 10870 10873 10877 10880 10883 10886 10888 10890 10893 10895 10897 10900 10903 10906 10908 10910 10912 10914 10917 10919 10921 10924 10926 10929 10932 10934 10935 10937 10938 10939 10941 10942 10944 10947 10947 10948 10949 10950 10950 10950 10950 10950 10950 10950 10950 10950 10950 10950 10950 10949 10948 10948 10948 10947 10946 10946 10945 10944 10943 10941 10940 10939 10939 10937 10935 10934 10932 10930 10928 10926 10924 10922 10920
10801 10806 10811 10817 10822 10827 10832 10837 10843 10849 10854 10859 10863 10867 10870 10874 10877 10880 10883 10885 10888 10890 10893 10896 10899 10901 10904 10906 10908 10910 10913 10915 10917 10919 10922 10925 10927 10929 10930 10932 10934 10935 10937 10939 10941 10943 10944 10944 10945 10945 10946 10946 10946 10946 10946 10946 10946 10946 10945 10945 10946 10945 10944 10943 10943 10942 10942 10941 10940 10939 10938 10937 10935 10934 10933 10932 10931 10929 10928 10925 10923 10921 10919 10917 10915
10791 10797 10802 10808 10813 10818 10824 10829 10835 10841 10847 10853 10857 10861 10864 10868 10872 10875 10878 10881 10883 10886 10888 10891 10894 10897 10900 10902 10904 10907 10909 10911 10913 10916 10918 10920 10922 10923 10925 10927 10929 10931 10933 10935 10937 10938 10939 10940 10940 10941 10941 10942 10942 10943 10943 10943 10942 10942 10941 10942 10941 10941 10940 10940 10939 10938 10937 10937 10936 10934 10933 10933 10931 10929 10928 10927 10926 10925 10923 10920 10918 10916 10914 10911 10909
10780 10787 10793 10799 10804 10810 10815 10822 10828 10834 10840 10845 10849 10853 10858 10862 10865 10869 10872 10875 10878 10881 10884 10887 10889 10892 10895 10898 10901 10903 10904 10907 10909 10912 10914 10915 10917 10919 10921 10923 10924 10926 10929 10932 10933 10933 10934 10935 10935 10936 10937 10937 10938 10938 10939 10939 10938 10937 10937 10937 10937 10936 10935 10935 10934 10934 10933 10932 10931 10929 10928 10928 10927 10924 10922 10921 10920 10920 10918 10915 10913 10911 10908 10906 10904